Total_Precipitation_Accumulation
0.09 0.18 0.42 0.68 1.16 1.88 1.71 1.14 0.62 0.43 0.42 0.54 0.61 0.56 0.61 0.65 0.91 1.50 1.36 1.08 0.76 0.84 1.01 1.21 1.39 1.35 1.33 1.39 1.38 1.41 1.49 1.48 1.47 1.48 1.55 1.59 1.67 1.71 1.83 1.83 1.65 1.57 1.53 1.40 1.32 1.16 0.98 0.92 0.84
0.16 0.31 0.52 0.75 1.47 1.91 1.44 1.25 0.55 0.42 0.41 0.50 0.54 0.53 0.59 0.54 0.42 0.70 1.16 1.06 0.75 0.78 0.86 0.91 1.14 1.19 1.16 1.29 1.34 1.48 1.50 1.40 1.33 1.37 1.42 1.52 1.75 1.80 1.74 1.58 1.47 1.47 1.36 1.23 1.08 0.92 0.77 0.72 0.65
0.19 0.37 0.54 0.77 1.06 1.14 0.81 0.67 0.38 0.42 0.40 0.49 0.53 0.50 0.52 0.67 0.56 0.77 0.96 0.87 0.88 0.89 0.99 1.09 1.17 1.17 1.20 1.29 1.39 1.44 1.38 1.33 1.36 1.41 1.46 1.58 1.66 1.60 1.50 1.43 1.34 1.27 1.15 1.03 0.87 0.75 0.67 0.65 0.62
0.20 0.32 0.43 0.54 0.52 0.55 0.48 0.36 0.27 0.33 0.31 0.41 0.48 0.46 0.59 0.66 0.57 0.83 0.98 1.05 1.03 1.05 1.09 1.12 1.14 1.09 1.08 1.10 1.20 1.34 1.39 1.36 1.39 1.39 1.40 1.37 1.37 1.40 1.27 1.17 1.11 1.07 0.99 0.87 0.79 0.69 0.65 0.65 0.68
0.20 0.34 0.45 0.41 0.34 0.42 0.40 0.32 0.27 0.27 0.27 0.44 0.57 0.70 0.91 0.87 0.72 0.98 1.12 1.14 1.06 1.04 1.10 1.06 1.12 1.13 1.06 1.01 1.05 1.17 1.28 1.32 1.33 1.30 1.29 1.26 1.23 1.25 1.14 1.02 0.95 0.92 0.83 0.74 0.72 0.68 0.68 0.70 0.73
0.20 0.33 0.32 0.27 0.29 0.34 0.31 0.23 0.22 0.28 0.34 0.48 0.68 0.92 1.23 1.23 0.99 1.02 1.08 1.00 1.02 1.06 1.12 1.15 1.26 1.27 1.23 1.11 1.08 1.05 1.14 1.23 1.20 1.17 1.16 1.13 1.06 1.05 1.02 0.99 0.89 0.82 0.73 0.68 0.68 0.66 0.70 0.76 0.80
0.18 0.24 0.20 0.17 0.21 0.28 0.26 0.20 0.20 0.23 0.32 0.59 0.78 1.01 1.42 1.69 1.35 1.12 1.14 1.19 1.26 1.19 1.13 1.16 1.25 1.27 1.23 1.29 1.17 1.08 1.04 1.03 1.00 0.97 1.02 1.00 0.92 0.89 0.91 1.00 0.96 0.80 0.73 0.72 0.73 0.73 0.72 0.75 0.85
0.11 0.12 0.16 0.15 0.13 0.22 0.23 0.21 0.19 0.23 0.30 0.47 0.69 0.95 1.46 1.53 1.27 1.23 1.46 1.53 1.69 1.56 1.37 1.29 1.24 1.13 1.08 1.10 1.10 1.06 1.00 0.95 0.95 0.94 0.92 0.97 0.95 0.90 0.95 0.98 0.98 0.89 0.87 0.94 0.91 0.88 0.85 0.81 0.82
0.08 0.08 0.11 0.11 0.09 0.13 0.15 0.18 0.19 0.20 0.26 0.48 0.70 0.95 1.25 1.21 1.13 1.15 1.71 1.87 1.90 1.80 1.67 1.45 1.21 1.10 1.06 0.97 0.97 1.13 1.18 1.13 1.11 1.06 1.01 1.11 1.24 1.07 1.13 1.06 1.20 1.21 1.16 1.24 1.28 1.28 1.21 1.09 0.97
0.06 0.05 0.06 0.05 0.05 0.07 0.11 0.17 0.18 0.22 0.40 0.80 1.11 1.18 1.16 1.15 1.27 1.43 1.82 1.83 1.96 2.02 1.77 1.59 1.38 1.14 1.00 0.91 1.08 1.37 1.20 1.22 1.29 1.33 1.30 1.52 1.75 1.73 1.15 1.25 1.54 1.68 1.73 1.78 1.84 1.89 1.63 1.37 1.27
0.03 0.04 0.03 0.03 0.03 0.05 0.08 0.15 0.18 0.25 0.64 1.12 1.59 1.43 1.26 1.37 1.49 1.73 2.11 2.30 2.25 2.32 2.05 1.86 1.59 1.30 1.11 1.18 1.09 1.25 1.44 1.56 1.56 1.52 1.53 1.73 1.60 1.38 1.26 1.42 1.72 1.98 2.05 2.04 2.27 2.29 1.95 2.00 2.25
0.02 0.02 0.02 0.02 0.03 0.05 0.08 0.12 0.20 0.33 0.61 0.79 1.05 1.30 1.41 1.60 1.84 2.09 2.22 2.43 2.42 2.47 2.33 2.29 1.88 1.70 1.73 1.52 1.25 1.16 1.20 1.35 1.53 1.78 1.72 1.82 2.04 1.94 1.87 1.99 2.04 2.17 2.39 2.77 2.66 2.81 2.66 2.62 2.53
0.02 0.02 0.02 0.02 0.03 0.05 0.07 0.11 0.23 0.40 0.51 0.60 0.92 1.29 1.60 1.72 2.02 2.34 2.43 2.69 2.54 2.49 2.49 2.47 2.25 2.08 2.15 1.94 1.72 1.45 1.56 1.58 1.66 1.78 1.91 1.86 2.15 2.38 2.38 2.35 2.32 2.19 2.27 2.51 2.71 2.72 3.07 3.21 2.83
0.01 0.01 0.01 0.02 0.03 0.06 0.11 0.17 0.28 0.43 0.60 0.78 1.00 1.27 1.58 1.87 2.12 2.29 2.70 2.86 2.87 2.76 2.80 2.57 2.48 2.48 2.49 2.42 2.35 2.22 1.94 2.03 1.94 1.89 1.89 1.93 2.20 2.54 2.71 2.62 2.55 2.38 2.35 2.52 2.72 2.90 3.37 3.32 3.15
0.02 0.03 0.04 0.05 0.06 0.09 0.15 0.33 0.48 0.60 0.68 0.82 1.03 1.17 1.51 2.03 2.31 2.36 2.69 2.82 2.75 3.11 3.13 3.10 3.04 3.18 3.14 3.00 2.88 2.63 2.41 2.26 2.22 2.29 2.30 2.20 2.29 2.59 2.62 2.49 2.39 2.44 2.56 2.75 2.78 2.99 3.21 2.93 2.95
0.04 0.10 0.13 0.13 0.11 0.12 0.21 0.54 0.64 0.71 0.71 0.90 1.10 1.27 1.57 1.88 2.23 2.39 2.67 2.85 2.90 3.27 3.44 3.61 3.58 3.61 3.45 3.47 3.42 3.17 2.93 2.75 2.56 2.51 2.55 2.40 2.38 2.47 2.70 2.49 2.34 2.66 2.69 2.83 3.14 3.29 3.25 3.20 3.22
0.08 0.09 0.11 0.13 0.11 0.11 0.18 0.45 0.59 0.74 0.96 1.12 1.31 1.47 1.51 1.80 2.12 2.48 2.76 3.09 3.35 3.66 3.93 4.13 4.13 4.00 3.75 3.80 3.77 3.63 3.49 3.17 2.81 2.64 2.55 2.41 2.38 2.52 2.84 2.80 2.88 2.92 3.03 3.09 2.95 3.39 3.45 3.33 3.34
0.08 0.09 0.12 0.14 0.12 0.12 0.24 0.49 0.61 0.78 1.04 1.09 1.36 1.54 1.62 1.70 2.14 2.58 2.79 3.20 3.67 4.15 4.55 4.40 4.31 4.52 4.42 4.28 4.13 3.86 3.42 3.00 2.85 2.82 2.63 2.48 2.52 2.63 3.05 2.92 2.89 2.96 3.13 3.20 3.18 3.35 3.40 3.14 3.11
0.06 0.08 0.11 0.14 0.13 0.17 0.30 0.56 0.82 0.93 1.22 1.18 1.19 1.37 1.52 1.64 1.94 2.35 2.66 3.22 3.82 4.20 4.59 4.75 4.77 4.69 4.52 4.17 3.86 3.61 3.37 3.17 2.91 2.74 2.66 2.56 2.46 2.65 3.07 2.90 3.13 3.09 3.08 3.11 3.17 3.30 3.23 2.95 3.13
0.07 0.08 0.11 0.16 0.16 0.22 0.41 0.63 0.93 0.94 1.01 1.06 0.99 1.06 1.24 1.59 1.84 2.35 2.66 2.87 3.34 3.85 4.31 4.61 4.76 4.65 4.28 3.90 3.73 3.62 3.56 3.17 2.88 2.85 2.98 2.81 2.82 2.85 2.86 3.02 2.99 3.04 3.14 3.10 3.10 3.24 3.07 2.72 2.98
0.09 0.09 0.11 0.12 0.15 0.29 0.45 0.87 1.12 1.00 0.96 0.99 0.98 1.06 1.23 1.68 2.12 2.37 2.56 2.72 3.01 3.40 3.70 3.82 3.98 3.94 3.79 3.83 3.84 3.78 3.76 3.33 3.23 3.23 3.23 3.02 3.04 3.06 3.04 3.00 2.91 2.91 2.73 2.78 2.86 2.90 2.92 2.85 2.79
0.11 0.09 0.07 0.09 0.17 0.38 0.47 1.03 1.42 1.21 1.09 1.18 1.21 1.18 1.44 1.74 1.77 1.92 2.23 2.54 2.72 2.96 3.29 3.53 3.58 3.53 3.44 3.54 3.60 3.49 3.29 3.13 3.28 3.58 3.52 3.24 3.03 2.87 2.68 2.62 2.76 2.77 2.57 2.58 2.28 2.42 2.62 2.63 2.49
0.10 0.09 0.09 0.12 0.19 0.36 0.48 0.80 1.33 1.31 1.32 1.27 1.25 1.35 1.59 1.60 1.52 1.63 1.84 2.16 2.28 2.58 2.86 3.10 3.36 3.45 3.40 3.45 3.40 3.41 3.27 3.28 3.35 3.34 3.33 3.12 2.93 2.59 2.27 2.30 2.47 2.45 2.37 2.27 2.16 2.32 2.22 2.19 2.23
0.08 0.09 0.16 0.23 0.35 0.70 0.57 0.62 1.11 1.25 1.11 1.08 1.16 1.20 1.38 1.37 1.36 1.55 1.71 1.97 2.11 2.24 2.37 2.51 2.70 2.97 3.14 3.20 3.17 3.20 3.15 3.13 3.06 2.98 2.85 2.65 2.50 2.25 1.99 1.92 2.07 2.19 2.21 2.15 2.14 2.22 2.12 2.14 2.27
0.08 0.14 0.48 0.87 1.06 1.09 0.60 0.65 1.12 1.04 0.93 0.87 1.04 1.11 1.15 1.09 1.07 1.29 1.44 1.59 1.77 1.90 1.99 2.08 2.27 2.60 2.76 2.75 2.74 2.86 2.92 2.91 2.83 2.80 2.64 2.42 2.19 1.92 1.88 1.91 1.98 2.03 2.07 1.94 2.02 2.09 2.13 2.26 2.32
0.11 0.13 0.42 0.75 0.84 0.89 0.73 1.08 1.51 1.05 0.93 0.90 0.94 0.95 0.92 0.86 0.83 0.99 1.23 1.50 1.64 1.61 1.69 1.79 2.03 2.29 2.39 2.33 2.46 2.69 2.76 2.84 2.74 2.75 2.48 2.22 2.02 1.92 1.99 1.96 1.84 1.79 1.89 1.79 2.04 1.99 2.04 2.23 2.27
0.11 0.12 0.19 0.36 0.44 0.69 0.94 1.21 1.25 0.80 0.75 0.81 0.83 0.86 0.95 0.89 0.82 0.89 0.98 1.16 1.25 1.27 1.36 1.51 1.88 2.20 2.32 2.36 2.49 2.59 2.67 2.66 2.57 2.43 2.25 2.04 2.05 2.00 2.11 2.06 1.94 1.84 1.92 2.03 2.30 2.23 2.20 2.41 2.37
0.11 0.14 0.20 0.28 0.46 0.71 0.93 1.22 1.34 0.96 0.78 0.59 0.55 0.60 0.60 0.60 0.62 0.70 0.74 0.85 0.97 1.17 1.42 1.58 1.72 2.02 2.17 2.22 2.32 2.37 2.57 2.50 2.32 2.22 2.04 1.88 1.80 1.84 2.01 2.15 2.07 2.00 2.03 2.18 2.36 2.37 2.52 2.66 2.61
0.14 0.13 0.16 0.21 0.29 0.49 0.95 1.18 0.93 0.77 0.64 0.60 0.57 0.62 0.55 0.51 0.51 0.57 0.72 0.86 1.01 1.17 1.35 1.42 1.46 1.63 1.78 1.90 2.08 2.07 2.08 2.17 2.23 2.08 1.85 1.76 1.75 1.81 1.88 2.07 2.14 2.11 2.15 2.23 2.27 2.26 2.55 2.66 2.64
0.15 0.13 0.14 0.20 0.20 0.31 0.55 0.78 0.60 0.66 0.66 0.57 0.59 0.66 0.67 0.66 0.60 0.63 0.82 0.99 1.09 1.22 1.25 1.25 1.29 1.42 1.58 1.76 1.95 2.02 2.03 2.09 2.12 2.00 1.83 1.78 1.81 1.88 1.91 2.03 2.05 1.97 1.97 2.15 2.19 2.25 2.52 2.65 2.55